When you browse on this site, cookies collect data to enhance your experience and personalize the content and advertising you see.
Visit our Privacy Policy to learn more. By continuing to use the site, you agree to this use of cookies and data.
  • In Lithuania
  • List of Countries
  • For 7 days
  • Water Temperature
  • Weather Map
  • Weather Widgets
  • user-avatar
    Login

    Hourly Weather Canberra

    Today, 20 September, Friday

    Time Temperature Precipitation Wind Pressure Humidity
    00:00 +11°C° 0 mm 1 mps 715 mmHg 96%
    01:00 +11°C° 0 mm 1 mps 714 mmHg 97%
    02:00 +11°C° 0 mm 1 mps 714 mmHg 97%
    03:00 +11°C° 0 mm 1 mps 714 mmHg 97%
    04:00 +11°C° 0 mm 1 mps 714 mmHg 96%
    05:00 +11°C° 0 mm 1 mps 714 mmHg 96%
    06:00 +12°C° 0 mm 1 mps 715 mmHg 96%
    07:00 +12°C° 0 mm 1 mps 715 mmHg 95%
    08:00 +14°C° 0 mm 1 mps 715 mmHg 88%
    09:00 +15°C° 0 mm 2 mps 715 mmHg 82%
    10:00 +18°C° 0 mm 1 mps 715 mmHg 74%
    11:00 +19°C° 0.1 mm 1 mps 714 mmHg 71%
    12:00 +19°C° 0.1 mm 2 mps 714 mmHg 67%
    13:00 +20°C° 0.1 mm 2 mps 713 mmHg 64%
    14:00 +20°C° 0.3 mm 2 mps 713 mmHg 66%
    15:00 +20°C° 0.3 mm 2 mps 713 mmHg 69%
    16:00 +20°C° 0.3 mm 2 mps 712 mmHg 71%
    17:00 +18°C° 0.2 mm 2 mps 712 mmHg 78%
    18:00 +16°C° 0.2 mm 2 mps 712 mmHg 86%
    19:00 +14°C° 0.2 mm 2 mps 712 mmHg 93%
    20:00 +14°C° 0.1 mm 2 mps 712 mmHg 94%
    21:00 +14°C° 0.1 mm 2 mps 712 mmHg 96%
    22:00 +13°C° 0.1 mm 3 mps 712 mmHg 97%
    23:00 +13°C° 0 mm 2 mps 712 mmHg 97%

    Tomorrow, 21 September, Saturday

    Time Temperature Precipitation Wind Pressure Humidity
    00:00 +13°C° 0 mm 2 mps 711 mmHg 97%
    01:00 +13°C° 0 mm 1 mps 711 mmHg 97%
    02:00 +12°C° 0 mm 1 mps 710 mmHg 97%
    03:00 +12°C° 0 mm 1 mps 710 mmHg 97%
    04:00 +12°C° 0 mm 1 mps 710 mmHg 97%
    05:00 +13°C° 0 mm 1 mps 710 mmHg 96%
    06:00 +13°C° 0 mm 1 mps 710 mmHg 95%
    07:00 +14°C° 0 mm 1 mps 710 mmHg 94%
    08:00 +14°C° 0.1 mm 3 mps 710 mmHg 86%
    09:00 +16°C° 0.1 mm 5 mps 710 mmHg 78%
    10:00 +18°C° 0.1 mm 7 mps 711 mmHg 70%
    11:00 +17°C° 1.3 mm 8 mps 710 mmHg 76%
    12:00 +16°C° 1.3 mm 8 mps 710 mmHg 83%
    13:00 +15°C° 1.3 mm 9 mps 709 mmHg 89%
    14:00 +15°C° 1.4 mm 8 mps 709 mmHg 90%
    15:00 +14°C° 1.4 mm 7 mps 709 mmHg 92%
    16:00 +13°C° 1.4 mm 6 mps 708 mmHg 93%
    17:00 +13°C° 0.8 mm 5 mps 709 mmHg 94%
    18:00 +13°C° 0.8 mm 4 mps 709 mmHg 95%
    19:00 +13°C° 0.8 mm 3 mps 709 mmHg 95%
    20:00 +12°C° 0.3 mm 3 mps 710 mmHg 95%
    21:00 +11°C° 0.3 mm 3 mps 710 mmHg 95%
    22:00 +10°C° 0.3 mm 3 mps 710 mmHg 95%
    23:00 +9°C° 0 mm 3 mps 710 mmHg 94%

    Day after tomorrow, 22 September, Sunday

    Time Temperature Precipitation Wind Pressure Humidity
    00:00 +8°C° 0 mm 3 mps 710 mmHg 93%
    01:00 +7°C° 0 mm 2 mps 710 mmHg 92%
    02:00 +7°C° 0 mm 2 mps 710 mmHg 92%
    03:00 +6°C° 0 mm 2 mps 710 mmHg 92%
    04:00 +6°C° 0 mm 2 mps 711 mmHg 92%
    05:00 +6°C° 0 mm 2 mps 711 mmHg 92%
    06:00 +6°C° 0 mm 2 mps 712 mmHg 92%
    07:00 +7°C° 0 mm 2 mps 712 mmHg 92%
    08:00 +9°C° 0 mm 3 mps 713 mmHg 79%
    09:00 +11°C° 0 mm 4 mps 713 mmHg 66%
    10:00 +13°C° 0 mm 5 mps 713 mmHg 53%
    11:00 +13°C° 0 mm 5 mps 713 mmHg 50%
    12:00 +14°C° 0 mm 6 mps 712 mmHg 47%
    13:00 +14°C° 0 mm 6 mps 712 mmHg 44%
    14:00 +14°C° 0 mm 6 mps 712 mmHg 47%
    15:00 +13°C° 0 mm 5 mps 711 mmHg 51%
    16:00 +12°C° 0 mm 5 mps 711 mmHg 54%
    17:00 +11°C° 0 mm 4 mps 712 mmHg 60%
    18:00 +9°C° 0 mm 3 mps 712 mmHg 66%
    19:00 +7°C° 0 mm 2 mps 712 mmHg 72%
    20:00 +6°C° 0 mm 2 mps 712 mmHg 74%
    21:00 +5°C° 0 mm 2 mps 713 mmHg 76%
    22:00 +4°C° 0 mm 2 mps 713 mmHg 78%
    23:00 +4°C° 0 mm 2 mps 713 mmHg 79%

    23 September, Monday

    Time Temperature Precipitation Wind Pressure Humidity
    00:00 +4°C° 0 mm 2 mps 712 mmHg 80%
    01:00 +4°C° 0 mm 1 mps 712 mmHg 80%
    02:00 +3°C° 0 mm 2 mps 712 mmHg 81%
    03:00 +3°C° 0 mm 2 mps 712 mmHg 82%
    04:00 +3°C° 0 mm 2 mps 712 mmHg 83%
    05:00 +3°C° 0 mm 2 mps 712 mmHg 81%
    06:00 +3°C° 0 mm 3 mps 712 mmHg 79%
    07:00 +3°C° 0 mm 3 mps 712 mmHg 78%
    08:00 +5°C° 0 mm 4 mps 713 mmHg 70%
    09:00 +7°C° 0 mm 5 mps 713 mmHg 63%
    10:00 +9°C° 0 mm 7 mps 713 mmHg 56%
    11:00 +10°C° 0.1 mm 7 mps 713 mmHg 52%
    12:00 +10°C° 0.1 mm 6 mps 713 mmHg 48%
    13:00 +11°C° 0.1 mm 6 mps 713 mmHg 44%
    14:00 +10°C° 0 mm 6 mps 713 mmHg 45%
    15:00 +10°C° 0 mm 5 mps 713 mmHg 45%
    16:00 +10°C° 0 mm 5 mps 713 mmHg 46%
    17:00 +8°C° 0 mm 4 mps 713 mmHg 55%
    18:00 +7°C° 0 mm 3 mps 714 mmHg 64%
    19:00 +5°C° 0 mm 2 mps 714 mmHg 73%
    20:00 +5°C° 0 mm 1 mps 714 mmHg 77%
    21:00 +4°C° 0 mm 1 mps 715 mmHg 82%
    22:00 +2°C° 0 mm 0 mps 715 mmHg 86%
    23:00 +2°C° 0 mm 0 mps 715 mmHg 86%

    24 September, Tuesday

    Time Temperature Precipitation Wind Pressure Humidity
    00:00 +2°C° 0 mm 0 mps 715 mmHg 87%
    01:00 +1°C° 0 mm 0 mps 715 mmHg 88%
    02:00 +1°C° 0 mm 0 mps 715 mmHg 88%
    03:00 0°C° 0 mm 0 mps 715 mmHg 89%
    04:00 0°C° 0 mm 0 mps 714 mmHg 90%
    05:00 +1°C° 0 mm 0 mps 715 mmHg 87%
    06:00 +2°C° 0 mm 0 mps 715 mmHg 84%
    07:00 +3°C° 0 mm 1 mps 715 mmHg 82%
    08:00 +6°C° 0 mm 1 mps 715 mmHg 72%
    09:00 +8°C° 0 mm 2 mps 715 mmHg 63%
    10:00 +12°C° 0 mm 2 mps 716 mmHg 53%
    11:00 +12°C° 0 mm 3 mps 715 mmHg 50%
    12:00 +14°C° 0 mm 3 mps 715 mmHg 47%
    13:00 +15°C° 0 mm 4 mps 714 mmHg 44%
    14:00 +14°C° 0 mm 4 mps 714 mmHg 47%
    15:00 +14°C° 0 mm 4 mps 713 mmHg 50%
    16:00 +13°C° 0 mm 4 mps 713 mmHg 53%
    17:00 +11°C° 0 mm 4 mps 713 mmHg 63%
    18:00 +9°C° 0 mm 3 mps 714 mmHg 74%
    19:00 +6°C° 0 mm 2 mps 715 mmHg 84%
    20:00 +5°C° 0 mm 2 mps 715 mmHg 87%
    21:00 +6°C° 0 mm 1 mps 715 mmHg 90%
    22:00 +5°C° 0 mm 1 mps 715 mmHg 93%
    23:00 +4°C° 0 mm 1 mps 715 mmHg 93%

    25 September, Wednesday

    Time Temperature Precipitation Wind Pressure Humidity
    00:00 +4°C° 0 mm 1 mps 715 mmHg 93%
    01:00 +4°C° 0 mm 1 mps 715 mmHg 93%
    02:00 +4°C° 0 mm 1 mps 714 mmHg 93%
    03:00 +3°C° 0 mm 1 mps 714 mmHg 94%
    04:00 +3°C° 0 mm 1 mps 714 mmHg 94%
    05:00 +4°C° 0 mm 1 mps 715 mmHg 91%
    06:00 +5°C° 0 mm 1 mps 715 mmHg 88%
    07:00 +7°C° 0 mm 1 mps 716 mmHg 86%
    08:00 +7°C° 0 mm 0 mps 716 mmHg 79%
    09:00 +9°C° 0 mm 0 mps 716 mmHg 72%
    10:00 +11°C° 0 mm 0 mps 716 mmHg 65%
    11:00 +12°C° 0 mm 0 mps 715 mmHg 62%
    12:00 +14°C° 0 mm 1 mps 715 mmHg 59%
    13:00 +14°C° 0 mm 1 mps 714 mmHg 56%
    14:00 +14°C° 0 mm 1 mps 714 mmHg 56%
    15:00 +14°C° 0 mm 1 mps 714 mmHg 56%
    16:00 +15°C° 0 mm 1 mps 714 mmHg 55%
    17:00 +13°C° 0 mm 1 mps 714 mmHg 64%
    18:00 +11°C° 0 mm 1 mps 715 mmHg 73%
    19:00 +9°C° 0 mm 1 mps 715 mmHg 82%
    20:00 +9°C° 0 mm 1 mps 715 mmHg 86%
    21:00 +9°C° 0 mm 1 mps 715 mmHg 90%
    22:00 +7°C° 0 mm 2 mps 716 mmHg 94%
    23:00 +7°C° 0 mm 2 mps 716 mmHg 94%
    Show more